CZ-6A DEB, 54959

Orbit data source: Space-Track

CZ-6A DEB, 54959 is space debris in SSO originally from a launch on Fri, 11 Nov 2022 UTC launched from the Taiyaun Space Center, China (TSC). Debris objects in space refer to the collection of defunct objects orbiting the Earth. Examples of debris include non-operational satellites, rocket bodies, and fragments generated from explosions, collisions, or faulty payload assembly.

Loading next visibility...
Identifier
54959, 2022-151SY
Orbit
SSO
Country
Flag of CNCN / PRC
Related business
Manufacturer
SAST
Mission
Spacecraft
Bus & Motor
Unknown
Mass
Unknown
Launch date (UTC)
2022-11-11 (4 years ago)
Launch vehicle
Unknown
Launch site
Taiyaun Space Center, China (TSC)
Object type
Payload
Rocket body
Debris
Shape & HBR
Unknown shape, 0.3 m
Radar Cross Section
Medium (>0.1 m² and <1 m²)

Expand to show TLE details & history
Last TLE update: 5 hours ago

TLE from 5 hours ago
0 CZ-6A DEB
1 54959U 22151SY  26264.25432330  .00000716  00000-0  44496-3 0  9999
2 54959  98.8735 251.5222 0074963 105.8332 255.1117 14.06768269197620
Epoch: 2026-09-21T06:06Z
TLE epoch observation values (Epoch: 2026-09-21T06:06:13.533Z)
Latitude
0.00001°
Longitude
159.82902°
Altitude
887.687 km
Speed
7.401 km/s
True Right ascension
16h 46m 05s
True Declination
0° 00' 00"
Sunlit
Object was in daylight at epoch
Visualization orbit readout
Latitude
Unknown
Longitude
Unknown
Altitude
Unknown
Speed
Unknown
Apparent Right ascension
Unknown
Apparent Declination
Unknown
Sunlit
N/A
Visualization observer readout
Local Sidereal Time
04:02:02
Azimuth
Unknown
Elevation
Unknown
Doppler factor
Unknown
Orbital elements
Apogee altitude
921.952 km
Perigee altitude
813.319 km
Semi-major axis
7,245.773 km
Eccentricity
0.0075
Inclination
98.8735°
RAAN
251.5222°
Arg. of periapsis
105.8332°
True anomaly
254.28355°
Mean anomaly
255.1117°
Eccentric anomaly
254.69742°
Mean motion
3.51897 °/min
Orbital period
102.3 mins
BSTAR
0.00044496
Loading maneuver chart data...
Computing Atmospheric mass density...
Loading historical data...
Loading historical data...
Loading historical data...
Loading historical data...
Loading historical data...
Loading historical data...
Loading historical data...

Documentation

Showing up to 5 results
|